When you browse on this site, cookies collect data to enhance your experience and personalize the content and advertising you see.
Visit our Privacy Policy to learn more. By continuing to use the site, you agree to this use of cookies and data.

Hourly Weather Sevan

Today, 18 September, Friday

Time Temperature Precipitation Wind Pressure Humidity
00:00 +17°C° 0.1 mm 2 mps 645 mmHg 68%
01:00 +17°C° 0 mm 2 mps 645 mmHg 69%
02:00 +18°C° 0 mm 1 mps 644 mmHg 70%
03:00 +18°C° 0 mm 1 mps 644 mmHg 72%
04:00 +18°C° 0 mm 1 mps 644 mmHg 72%
05:00 +16°C° 0 mm 1 mps 643 mmHg 72%
06:00 +16°C° 0 mm 1 mps 643 mmHg 72%
07:00 +19°C° 0 mm 1 mps 644 mmHg 63%
08:00 +21°C° 0 mm 2 mps 644 mmHg 55%
09:00 +24°C° 0 mm 2 mps 645 mmHg 46%
10:00 +26°C° 0 mm 3 mps 645 mmHg 41%
11:00 +27°C° 0 mm 3 mps 645 mmHg 36%
12:00 +28°C° 0 mm 3 mps 645 mmHg 31%
13:00 +29°C° 0 mm 3 mps 645 mmHg 27%
14:00 +29°C° 0 mm 3 mps 644 mmHg 23%
15:00 +30°C° 0 mm 3 mps 644 mmHg 19%
16:00 +28°C° 0 mm 2 mps 643 mmHg 23%
17:00 +26°C° 0 mm 2 mps 643 mmHg 27%
18:00 +24°C° 0 mm 1 mps 642 mmHg 31%
19:00 +23°C° 0 mm 2 mps 642 mmHg 38%
20:00 +21°C° 0 mm 2 mps 642 mmHg 44%
21:00 +20°C° 0 mm 3 mps 642 mmHg 51%
22:00 +19°C° 0 mm 3 mps 642 mmHg 52%
23:00 +19°C° 0 mm 3 mps 642 mmHg 53%

Tomorrow, 19 September, Saturday

Time Temperature Precipitation Wind Pressure Humidity
00:00 +18°C° 0 mm 2 mps 642 mmHg 54%
01:00 +18°C° 0 mm 2 mps 641 mmHg 54%
02:00 +17°C° 0 mm 2 mps 641 mmHg 55%
03:00 +17°C° 0 mm 2 mps 641 mmHg 55%
04:00 +17°C° 0 mm 2 mps 641 mmHg 54%
05:00 +18°C° 0 mm 1 mps 641 mmHg 54%
06:00 +16°C° 0 mm 1 mps 641 mmHg 53%
07:00 +20°C° 0 mm 1 mps 641 mmHg 46%
08:00 +21°C° 0 mm 2 mps 642 mmHg 39%
09:00 +25°C° 0 mm 2 mps 642 mmHg 31%
10:00 +26°C° 0 mm 2 mps 643 mmHg 29%
11:00 +27°C° 0 mm 2 mps 643 mmHg 27%
12:00 +28°C° 0 mm 3 mps 643 mmHg 25%
13:00 +28°C° 0 mm 4 mps 643 mmHg 24%
14:00 +28°C° 0 mm 4 mps 642 mmHg 24%
15:00 +28°C° 0 mm 5 mps 642 mmHg 23%
16:00 +26°C° 0 mm 4 mps 642 mmHg 31%
17:00 +23°C° 0 mm 4 mps 641 mmHg 39%
18:00 +21°C° 0 mm 4 mps 641 mmHg 46%
19:00 +20°C° 0 mm 3 mps 641 mmHg 49%
20:00 +19°C° 0 mm 3 mps 641 mmHg 51%
21:00 +18°C° 0 mm 2 mps 641 mmHg 53%
22:00 +18°C° 0 mm 2 mps 642 mmHg 54%
23:00 +17°C° 0 mm 2 mps 642 mmHg 55%

Day after tomorrow, 20 September, Sunday

Time Temperature Precipitation Wind Pressure Humidity
00:00 +18°C° 0 mm 1 mps 642 mmHg 56%
01:00 +16°C° 0 mm 1 mps 642 mmHg 57%
02:00 +16°C° 0 mm 1 mps 642 mmHg 59%
03:00 +15°C° 0 mm 1 mps 641 mmHg 60%
04:00 +15°C° 0 mm 1 mps 642 mmHg 62%
05:00 +15°C° 0 mm 1 mps 642 mmHg 64%
06:00 +14°C° 0 mm 1 mps 642 mmHg 67%
07:00 +16°C° 0 mm 2 mps 643 mmHg 61%
08:00 +18°C° 0 mm 2 mps 643 mmHg 56%
09:00 +20°C° 0 mm 2 mps 644 mmHg 50%
10:00 +21°C° 0 mm 2 mps 644 mmHg 47%
11:00 +22°C° 0 mm 3 mps 644 mmHg 43%
12:00 +25°C° 0 mm 3 mps 644 mmHg 39%
13:00 +25°C° 0 mm 3 mps 644 mmHg 36%
14:00 +26°C° 0 mm 3 mps 643 mmHg 34%
15:00 +26°C° 0 mm 2 mps 643 mmHg 32%
16:00 +24°C° 0 mm 3 mps 642 mmHg 40%
17:00 +21°C° 0 mm 3 mps 642 mmHg 48%
18:00 +19°C° 0 mm 3 mps 641 mmHg 56%
19:00 +18°C° 0 mm 3 mps 642 mmHg 59%
20:00 +17°C° 0 mm 4 mps 642 mmHg 61%
21:00 +17°C° 0 mm 4 mps 642 mmHg 63%
22:00 +15°C° 0 mm 4 mps 642 mmHg 64%
23:00 +16°C° 0 mm 3 mps 642 mmHg 65%

21 September, Monday

Time Temperature Precipitation Wind Pressure Humidity
00:00 +14°C° 0 mm 3 mps 642 mmHg 67%
01:00 +14°C° 0 mm 3 mps 642 mmHg 68%
02:00 +14°C° 0 mm 3 mps 642 mmHg 70%
03:00 +14°C° 0 mm 2 mps 642 mmHg 72%
04:00 +14°C° 0.1 mm 2 mps 642 mmHg 74%
05:00 +14°C° 0.1 mm 2 mps 642 mmHg 76%
06:00 +13°C° 0.1 mm 2 mps 642 mmHg 78%
07:00 +15°C° 0 mm 2 mps 643 mmHg 71%
08:00 +17°C° 0 mm 2 mps 644 mmHg 65%
09:00 +19°C° 0 mm 2 mps 645 mmHg 58%
10:00 +20°C° 0.1 mm 2 mps 645 mmHg 54%
11:00 +23°C° 0.1 mm 2 mps 645 mmHg 50%
12:00 +24°C° 0.1 mm 3 mps 645 mmHg 46%
13:00 +24°C° 0.1 mm 3 mps 645 mmHg 45%
14:00 +25°C° 0.1 mm 3 mps 645 mmHg 45%
15:00 +25°C° 0.1 mm 3 mps 644 mmHg 44%
16:00 +22°C° 0.1 mm 4 mps 644 mmHg 51%
17:00 +20°C° 0.1 mm 4 mps 643 mmHg 59%
18:00 +18°C° 0.1 mm 4 mps 643 mmHg 66%
19:00 +18°C° 0.1 mm 4 mps 643 mmHg 68%
20:00 +17°C° 0.1 mm 4 mps 643 mmHg 69%
21:00 +15°C° 0.1 mm 4 mps 643 mmHg 70%
22:00 +16°C° 0.1 mm 3 mps 643 mmHg 71%
23:00 +16°C° 0.1 mm 3 mps 643 mmHg 72%

22 September, Tuesday

Time Temperature Precipitation Wind Pressure Humidity
00:00 +16°C° 0.1 mm 2 mps 643 mmHg 73%
01:00 +15°C° 0 mm 2 mps 643 mmHg 74%
02:00 +15°C° 0 mm 2 mps 642 mmHg 75%
03:00 +15°C° 0 mm 2 mps 642 mmHg 76%
04:00 +15°C° 0 mm 2 mps 642 mmHg 76%
05:00 +14°C° 0 mm 1 mps 642 mmHg 76%
06:00 +14°C° 0 mm 1 mps 642 mmHg 77%
07:00 +16°C° 0 mm 1 mps 643 mmHg 68%
08:00 +20°C° 0 mm 1 mps 644 mmHg 60%
09:00 +22°C° 0 mm 1 mps 644 mmHg 51%
10:00 +23°C° 0 mm 2 mps 644 mmHg 46%
11:00 +25°C° 0 mm 2 mps 644 mmHg 40%
12:00 +26°C° 0 mm 3 mps 644 mmHg 35%
13:00 +27°C° 0 mm 3 mps 644 mmHg 33%
14:00 +27°C° 0 mm 3 mps 644 mmHg 31%
15:00 +28°C° 0 mm 2 mps 644 mmHg 28%
16:00 +26°C° 0.2 mm 3 mps 643 mmHg 37%
17:00 +24°C° 0.2 mm 3 mps 643 mmHg 45%
18:00 +21°C° 0.2 mm 3 mps 643 mmHg 54%
19:00 +19°C° 0.7 mm 4 mps 643 mmHg 60%
20:00 +18°C° 0.7 mm 4 mps 643 mmHg 67%
21:00 +16°C° 0.7 mm 5 mps 643 mmHg 73%
22:00 +17°C° 0.4 mm 4 mps 643 mmHg 74%
23:00 +16°C° 0.4 mm 3 mps 643 mmHg 75%

23 September, Wednesday

Time Temperature Precipitation Wind Pressure Humidity
00:00 +16°C° 0.4 mm 3 mps 643 mmHg 76%
01:00 +14°C° 0 mm 3 mps 643 mmHg 77%
02:00 +14°C° 0 mm 3 mps 643 mmHg 79%
03:00 +14°C° 0 mm 3 mps 643 mmHg 80%
04:00 +15°C° 0 mm 2 mps 643 mmHg 80%
05:00 +14°C° 0 mm 2 mps 643 mmHg 80%
06:00 +14°C° 0 mm 2 mps 643 mmHg 80%
07:00 +16°C° 0 mm 2 mps 644 mmHg 74%
08:00 +17°C° 0 mm 2 mps 644 mmHg 68%
09:00 +20°C° 0 mm 1 mps 645 mmHg 61%
10:00 +20°C° 0 mm 2 mps 645 mmHg 58%
11:00 +21°C° 0 mm 2 mps 645 mmHg 54%
12:00 +23°C° 0 mm 2 mps 646 mmHg 51%
13:00 +22°C° 0.1 mm 3 mps 645 mmHg 51%
14:00 +22°C° 0.1 mm 3 mps 645 mmHg 50%
15:00 +24°C° 0.1 mm 3 mps 645 mmHg 50%
16:00 +21°C° 0 mm 3 mps 645 mmHg 55%
17:00 +20°C° 0 mm 4 mps 644 mmHg 61%
18:00 +18°C° 0 mm 4 mps 644 mmHg 66%
19:00 +18°C° 0 mm 4 mps 644 mmHg 68%
20:00 +17°C° 0 mm 4 mps 644 mmHg 70%
21:00 +15°C° 0 mm 4 mps 644 mmHg 72%
22:00 +16°C° 0 mm 3 mps 644 mmHg 73%
23:00 +16°C° 0 mm 3 mps 644 mmHg 74%
Show more